www.pogodaiklimat.ru

Погода и климат >> Архив погоды >> Россия >> Саратовская область >> Озинки


ПОГОДА в Озинках

  • Прогноз погоды в Озинках
  • Монитор погоды в Озинках

АРХИВ ПОГОДЫ в Озинках

Время (UTC), дата Ветер
(напр.,м/с)
 
Видим.   Явления Облачность Т
(С)
Тd
(С)
f
(%)
Тe
(С)
Тes
(С)
Комфортность P
(гПа)
Po
(гПа)
Тmin
(С)
Tmax
(С)
R
(мм)
R24
(мм)
S
(см)
06 16.08 ЮВ 3 50 км 1/1 600 м
[Cu hum]
+27.3 +13.3 42 +29 +36 жарко 1016.1 1004.2
09 16.08 Ю 3 50 км ясно +31.1 +11.8 31 +32 +43 жарко 1014.7 1003.0
12 16.08 Ю 1 50 км 3/3 600 м
[Cu hum Ci fib]
+33.4 +9.5 23 +32 +38 жарко 1013.1 1001.5
15 16.08 Ю 2 50 км 3/1 600 м
[Cu hum Ci fib]
+31.1 +9.8 27 +31 +31 жарко 1012.9 1001.2 +33.4
18 16.08 ЮЗ 1 10 км 1/0
[Ci fib]
+24.2 +10.7 43 +25 +25 комфорт 1013.8 1001.8
21 16.08 Ю 2 10 км 8/0
[Ci fib]
+20.7 +11.3 55 +23 +23 комфорт 1014.5 1002.4
00 17.08 ЮЗ 2 10 км 10/0
[Ci fib]
+20.0 +6.5 41 +21 +21 комфорт 1014.9 1002.7
03 17.08 штиль 0 50 км 10/0
[Ac trans Ci fib]
+18.1 +9.0 55 +18 +19 1015.5 1003.2 +17.0
06 17.08 Ю 2 50 км 5/0
[Cs]
+27.9 +7.8 28 +27 +36 жарко 1015.6 1003.7
09 17.08 Ю 5 50 км 3/0
[Ci fib]
+31.8 +4.6 18 +30 +36 жарко 1014.7 1003.0
12 17.08 Ю 5
{11}
50 км 3/0
[Ci fib]
+33.7 +4.0 16 +31 +35 жарко 1013.7 1002.0
15 17.08 Ю 3
{10}
50 км 5/0
[Ci fib]
+31.6 +3.6 17 +29 +29 жарко 1013.4 1001.7 +33.9
18 17.08 ЮВ 2 10 км 3/0
[Ci fib]
+23.1 +6.5 34 +24 +24 комфорт 1014.0 1001.9
21 17.08 З 1 10 км 6/0
[Ac trans Ci fib]
+21.0 +7.4 41 +23 +23 комфорт 1014.5 1002.3
00 18.08 ЮВ 2 10 км 6/0
[Ac trans]
+20.3 +6.8 41 +22 +22 комфорт 1015.2 1003.0
03 18.08 ЮВ 2 50 км 8/0
[Ac trans]
+20.0 +7.8 45 +22 +22 комфорт 1015.2 1003.0 +19.3
06 18.08 Ю 2 50 км 9/5 600 м
[Sc Ac trans]
+26.1 +8.0 32 +26 +28 жарко 1016.0 1004.0
09 18.08 Ю 2 50 км 10/0
[As op]
+30.1 +7.8 25 +29 +32 жарко 1016.2 1004.4
12 18.08 Ю 3 50 км 8/4 600 м
[Sc Ac trans]
+33.1 +5.5 18 +31 +33 жарко 1015.9 1004.2
15 18.08 ЮВ 2 50 км 8/6
[Sc Ac trans]
+30.4 +9.0 26 +30 +30 жарко 1016.0 1004.2 +33.5
18 18.08 ЮВ 2 10 км 3/0
[Ac lent]
+24.6 +9.0 37 +25 +25 комфорт 1017.0 1005.0
21 18.08 ЮВ 2 10 км 3/0
[Ci fib]
+23.3 +8.6 39 +25 +25 комфорт 1017.6 1005.5
00 19.08 ЮВ 1 10 км 5/0
[Ci sp]
+20.4 +9.6 50 +23 +23 комфорт 1018.2 1006.0
03 19.08 штиль 0 50 км 8/0
[Ac As]
+21.5 +10.5 50 +23 +24 комфорт 1019.1 1006.9 +19.3
06 19.08 Ю 6
{10}
50 км 6/3 600 м
[Sc Ac trans]
+31.1 +8.4 24 +30 +32 жарко 1019.1 1007.3
09 19.08 Ю 6-11
{11}
50 км 4/3 600 м
[Sc Ci fib]
+36.0 +5.5 15 +33 +37 жарко 1018.2 1006.6
12 19.08 Ю 4
{12}
50 км 8/8 600 м
[Sc]
+35.5 +5.1 15 +33 +34 жарко 1017.9 1006.3
15 19.08 Ю 1
{10}
50 км 8/3 600 м
[Sc Ac trans Ci fib]
+33.2 +8.5 22 +32 +32 жарко 1018.1 1006.4 +36.7
18 19.08 Ю 2 10 км ясно +27.8 +7.9 28 +27 +27 жарко 1018.7 1006.8
21 19.08 Ю 1 10 км ясно +25.0 +7.3 32 +25 +25 комфорт 1018.9 1006.9
00 20.08 Ю 3 10 км 4/0
[Ac trans Ci fib]
+23.6 +7.0 34 +24 +24 комфорт 1019.5 1007.4
03 20.08 ЮЗ 2 50 км 4/1 600 м
[Sc Ci fib]
+21.1 +8.0 43 +22 +23 комфорт 1020.2 1008.0 +20.7
06 20.08 ЮЗ 4 50 км 8/8 600 м
[Cu hum]
+29.5 +8.2 26 +29 +30 жарко 1020.2 1008.3
09 20.08 ЮЗ 5-10
{10}
50 км 4/4 600 м
[Cu hum]
+35.6 +4.4 14 +33 +37 жарко 1019.3 1007.7
12 20.08 З 3
{10}
50 км 1/1 600 м
[Cu hum]
+36.9 +4.0 13 +34 +39 очень
жарко
1017.8 1006.2
15 20.08 З 1 50 км 1/1 600 м
[Cu hum]
+35.4 +4.4 15 +33 +33 жарко 1017.1 1005.5 +37.0
18 20.08 штиль 0 10 км 1/0
[Ac trans]
+23.9 +6.0 32 +24 +24 комфорт 1017.6 1005.5
21 20.08 штиль 0 10 км ясно +19.8 +4.9 38 +20 +20 1017.2 1005.0
00 21.08 С 4 10 км 3/0
[Ac trans]
+19.2 +11.8 62 +20 +20 1017.1 1004.9
03 21.08 СВ 5 50 км 3/3 600 м
[Sc]
+21.2 +16.7 75 +25 +25 комфорт 1017.4 1005.3 +17.8
06 21.08 СВ 7-10
{10}
50 км 4/0
[As op]
+28.4 +16.8 49 +32 +34 душно 1017.0 1005.2
09 21.08 С 4
{12}
50 км 6/6 720 м
[Sc]
+28.7 +13.9 40 +31 +34 жарко 1017.9 1006.1
12 21.08 СВ 6
{11}
50 км 3/0
[Ci fib]
+32.4 +12.4 30 +33 +35 жарко 1016.8 1005.1
15 21.08 СВ 6
{10}
50 км 3/0
[Ci fib]
+29.8 +12.9 35 +31 +31 жарко 1017.3 1005.5 +33.0
18 21.08 С 4 10 км ясно +23.1 +13.2 54 +26 +26 жарко 1018.6 1006.5
21 21.08 СВ 3 10 км ясно +20.1 +14.8 72 +23 +23 комфорт 1019.5 1007.3
00 22.08 С 3 10 км ясно +16.0 +14.4 90 +16 +16 1020.1 1007.7
03 22.08 СВ 2 50 км ясно +16.2 +14.7 91 +16 +17 1020.8 1008.4 +14.4
06 22.08 СВ 6 50 км 3/0
[Ci fib]
+24.5 +14.5 54 +27 +30 жарко 1020.1 1008.1
09 22.08 СВ 6
{10}
50 км 5/0
[Ci fib]
+28.2 +12.9 39 +30 +34 жарко 1019.2 1007.3
12 22.08 СВ 5 50 км 3/0
[Ci fib]
+30.8 +12.5 33 +32 +35 жарко 1018.0 1006.2
15 22.08 В 3 50 км 3/0
[Ci fib]
+29.5 +12.5 35 +31 +31 жарко 1017.7 1005.8 +31.0
18 22.08 В 2 10 км ясно +24.0 +12.8 50 +26 +26 жарко 1018.6 1006.5
21 22.08 В 2 10 км ясно +21.9 +13.3 58 +25 +25 комфорт 1019.3 1007.2
00 23.08 СВ 2 10 км ясно +17.0 +12.5 75 +17 +17 1019.4 1007.1
03 23.08 С 1 50 км 3/0
[Ci fib]
+18.6 +12.6 68 +20 +21 1019.7 1007.4 +15.0

 

Местоположение метеостанции Озинки (Саратовская область, Россия): широта 51.20 долгота 49.73 высота над уровнем моря 104 м.

В архиве по умолчанию представлена погода в Озинках за последнюю неделю. Архивные данные за месяц целиком и за предыдущие месяцы, начиная с января 2011 года, Вы можете получить, выбрав интересующий диапазон дат из раскрывающегося списка и нажав кнопку "Ввод!".


*Определитесь, кто Вы:
робот инопланетянин человек

Внимание! Время в таблицах - всемирное. Для получения местного времени необходимо прибавить поправку, которая равна 4 ч.

Смотрите также архив погоды в соседних городах и на ближайших метеорологических станциях:

Погода в Каменке (Западно-Казахстанская область, Казахстан) (42 км)
Погода в Перелюбе (Саратовская область, Россия) (85 км)
Погода в Ершове (Саратовская область, Россия) (101 км)
Погода в Уральске (Западно-Казахстанская область, Казахстан) (108 км)
Погода в Январцево (Западно-Казахстанская область, Казахстан) (109 км)
Погода в Пугачеве (Саратовская область, Россия) (111 км)
Погода в Большая Глушица (Самарская область, Россия) (141 км)
Погода в Новоузенске (Саратовская область, Россия) (141 км)
Погода в Александровом Гае (Саратовская область, Россия) (143 км)
Погода в Чапаево (Западно-Казахстанская область, Казахстан) (151 км)

Пояснения к столбцам:

Ветер - указаны скорость ветра в м/с - средняя за 10 мин, порывы в срок и между сроками (в фигурных скобках) и направление, откуда дует ветер: С - северный, СВ - северо-восточный, В - восточный, ЮВ - юго-восточный, Ю - южный, ЮЗ - юго-западный, З - западный, СЗ - северо-западный.
Видимость - горизонтальная дальность видимости в метрах или километрах. При видимости от 1 до 10 км при отсутствии осадков обычно наблюдается дымка, при ухудшении видимости до 1 км и менее - туман. В сухую погоду видимость может ухудшаться дымом, пылью или мглою.
Явления - указаны атмосферные явления, наблюдавшиеся в срок или в последний час перед сроком; фигурными скобками обозначены явления, наблюдавшиеся между сроками (за 1-3 часа до срока); квадратными скобками обозначены град или гололедные отложения с указанием их диаметра в мм.
Облачность - указаны через наклонную черту общая и нижняя облачность в баллах и высота нижней границы облаков в метрах; квадратными скобками обозначены формы облаков: Ci - перистые, Cs - перисто-слоистые, Cc - перисто-кучевые, Ac - высококучевые, As - высокослоистые, Sc - слоисто-кучевые, Ns - слоисто-дождевые, Cu - кучевые, Cb - кучево-дождевые. Подробнее классификацию облаков см. в Атласе облаков (PDF).
T - Температура воздуха - температура, измеренная на высоте 2 м над землей.
Td - Температура точки росы - температура, при понижении до которой содержащийся в воздухе водяной пар достигнет насыщения.
f - Относительная влажность воздуха - влажноcть воздуха, измеренная на высоте 2 м над землей.
Te - Эффективная температура - температура, которую ощущает одетый по сезону человек в тени. Характеристика душности погоды. При расчете учитывается влияние влажности воздуха и скорости ветра на теплоощущения человека.
Tes - Эффективная температура на солнце - температура, которую ощущает человек, с поправкой на солнечный нагрев. Характеристика знойности погоды. Зависит от высоты солнца над горизонтом, облачности и скорости ветра. Ночью, в пасмурную погоду, а также при ветре 12 м/с и более поправка равна нулю.
P - Атмосферное давление - приведенное к уровню моря атмосферное давление.
Po - Атмосферное давление - измеренное на уровне метеостанции атмосферное давление.
Tmin - Минимальная температура - минимум температуры воздуха на высоте 2 м над землей.
Tmax - Максимальная температура - максимум температуры воздуха на высоте 2 м над землей.
R - Количество осадков - Количество выпавших осадков за период времени, мм. При наведении курсора мыши на число - период времени, за который выпало указанное количество осадков.
R24 - Количество осадков - Количество выпавших осадков за 24 часа, мм.
S - Снежный покров - Высота снежного покрова, см. При наведении курсора мыши на число - состояние снежного покрова и степень покрытия местности в баллах.